TimeEDT,TemperatureF,Dew PointF,Humidity,Sea Level PressureIn,VisibilityMPH,Wind Direction,Wind SpeedMPH,Gust SpeedMPH,PrecipitationIn,Events,Conditions,WindDirDegrees,DateUTC
12:15 AM,42.8,39.2,87,29.67,9.0,SSW,9.2,-,N/A,,Mostly Cloudy,200,2013-04-01 04:15:00
12:35 AM,42.8,39.2,87,29.67,10.0,SSW,8.1,-,N/A,,Overcast,210,2013-04-01 04:35:00
12:55 AM,42.8,39.2,87,29.66,10.0,SSW,9.2,-,N/A,,Overcast,210,2013-04-01 04:55:00
1:15 AM,44.6,39.2,81,29.67,10.0,SW,9.2,-,N/A,,Overcast,220,2013-04-01 05:15:00
1:35 AM,42.8,39.2,87,29.66,10.0,SW,5.8,-,N/A,,Overcast,220,2013-04-01 05:35:00
2:15 AM,42.8,39.2,87,29.65,10.0,SW,9.2,-,N/A,,Mostly Cloudy,220,2013-04-01 06:15:00
2:35 AM,42.8,39.2,87,29.64,10.0,SSW,6.9,-,N/A,,Mostly Cloudy,210,2013-04-01 06:35:00
2:55 AM,42.8,39.2,87,29.64,10.0,SW,8.1,-,N/A,,Mostly Cloudy,220,2013-04-01 06:55:00
3:15 AM,44.6,37.4,76,29.64,10.0,SW,10.4,-,N/A,,Overcast,220,2013-04-01 07:15:00
3:35 AM,44.6,37.4,76,29.64,10.0,SW,10.4,-,N/A,,Overcast,230,2013-04-01 07:35:00
3:55 AM,44.6,37.4,76,29.64,10.0,SW,9.2,19.6,N/A,,Overcast,230,2013-04-01 07:55:00
4:15 AM,44.6,37.4,76,29.65,10.0,WSW,10.4,18.4,N/A,,Overcast,240,2013-04-01 08:15:00
4:35 AM,44.6,37.4,76,29.65,10.0,West,10.4,25.3,N/A,,Overcast,260,2013-04-01 08:35:00
4:55 AM,42.8,35.6,76,29.66,10.0,West,13.8,24.2,N/A,,Mostly Cloudy,260,2013-04-01 08:55:00
5:15 AM,42.8,35.6,76,29.67,10.0,NW,11.5,20.7,N/A,,Overcast,310,2013-04-01 09:15:00
5:35 AM,39.2,33.8,81,29.68,10.0,West,11.5,19.6,N/A,,Mostly Cloudy,280,2013-04-01 09:35:00
6:15 AM,39.2,33.8,81,29.69,10.0,West,9.2,-,N/A,,Mostly Cloudy,280,2013-04-01 10:15:00
6:35 AM,37.4,28.4,70,29.71,10.0,West,16.1,21.9,N/A,,Mostly Cloudy,280,2013-04-01 10:35:00
6:55 AM,37.4,26.6,65,29.72,10.0,West,17.3,25.3,N/A,,Overcast,280,2013-04-01 10:55:00
7:15 AM,35.6,26.6,70,29.73,10.0,West,16.1,25.3,N/A,,Overcast,270,2013-04-01 11:15:00
7:35 AM,35.6,28.4,75,29.75,10.0,West,15.0,21.9,N/A,,Overcast,270,2013-04-01 11:35:00
8:15 AM,33.8,26.6,75,29.78,10.0,WNW,12.7,19.6,N/A,,Overcast,300,2013-04-01 12:15:00
8:35 AM,32.0,26.6,80,29.80,3.0,WNW,10.4,20.7,N/A,,Overcast,290,2013-04-01 12:35:00
8:55 AM,30.2,24.8,80,29.81,4.0,WNW,10.4,18.4,N/A,,Mostly Cloudy,290,2013-04-01 12:55:00
9:15 AM,30.2,24.8,80,29.82,2.5,NW,8.1,-,N/A,,Overcast,310,2013-04-01 13:15:00
9:35 AM,30.2,23.0,75,29.82,10.0,NW,12.7,25.3,N/A,,Overcast,310,2013-04-01 13:35:00
9:55 AM,30.2,19.4,64,29.83,10.0,NW,12.7,21.9,N/A,,Overcast,310,2013-04-01 13:55:00
10:15 AM,30.2,19.4,64,29.84,10.0,WNW,10.4,18.4,N/A,,Overcast,300,2013-04-01 14:15:00
10:35 AM,32.0,17.6,55,29.85,10.0,West,10.4,18.4,N/A,,Overcast,280,2013-04-01 14:35:00
10:55 AM,33.8,19.4,56,29.85,10.0,WNW,11.5,19.6,N/A,,Mostly Cloudy,290,2013-04-01 14:55:00
11:15 AM,33.8,19.4,56,29.86,10.0,WNW,17.3,26.5,N/A,,Mostly Cloudy,290,2013-04-01 15:15:00
11:35 AM,33.8,15.8,48,29.86,10.0,NW,11.5,21.9,N/A,,Scattered Clouds,320,2013-04-01 15:35:00
12:15 PM,35.6,19.4,52,29.88,10.0,WNW,12.7,24.2,N/A,,Mostly Cloudy,300,2013-04-01 16:15:00
12:35 PM,33.8,14.0,44,29.88,10.0,West,17.3,31.1,N/A,,Scattered Clouds,270,2013-04-01 16:35:00
12:55 PM,35.6,17.6,48,29.89,10.0,West,12.7,21.9,N/A,,Partly Cloudy,280,2013-04-01 16:55:00
1:15 PM,35.6,12.2,38,29.89,10.0,WNW,13.8,21.9,N/A,,Partly Cloudy,290,2013-04-01 17:15:00
1:35 PM,35.6,14.0,41,29.89,10.0,West,15.0,24.2,N/A,,Partly Cloudy,270,2013-04-01 17:35:00
1:55 PM,35.6,12.2,38,29.90,10.0,WNW,17.3,24.2,N/A,,Partly Cloudy,290,2013-04-01 17:55:00
2:15 PM,35.6,15.8,44,29.90,10.0,WNW,13.8,19.6,N/A,,Mostly Cloudy,290,2013-04-01 18:15:00
2:35 PM,35.6,12.2,38,29.90,10.0,West,16.1,-,N/A,,Mostly Cloudy,280,2013-04-01 18:35:00
2:55 PM,35.6,12.2,38,29.90,10.0,West,15.0,21.9,N/A,,Mostly Cloudy,280,2013-04-01 18:55:00
3:15 PM,35.6,14.0,41,29.91,10.0,West,9.2,20.7,N/A,,Mostly Cloudy,280,2013-04-01 19:15:00
3:35 PM,33.8,12.2,41,29.91,10.0,WNW,15.0,21.9,N/A,,Mostly Cloudy,300,2013-04-01 19:35:00
4:15 PM,35.6,14.0,41,29.92,10.0,NW,11.5,18.4,N/A,,Mostly Cloudy,310,2013-04-01 20:15:00
4:35 PM,33.8,10.4,38,29.92,10.0,WNW,13.8,20.7,N/A,,Mostly Cloudy,300,2013-04-01 20:35:00
4:55 PM,35.6,14.0,41,29.93,10.0,West,10.4,18.4,N/A,,Mostly Cloudy,280,2013-04-01 20:55:00
5:15 PM,35.6,14.0,41,29.93,10.0,West,11.5,17.3,N/A,,Overcast,280,2013-04-01 21:15:00
5:35 PM,35.6,14.0,41,29.93,10.0,WNW,9.2,19.6,N/A,,Overcast,290,2013-04-01 21:35:00
5:55 PM,33.8,12.2,41,29.94,10.0,WNW,10.4,18.4,N/A,,Mostly Cloudy,290,2013-04-01 21:55:00
6:15 PM,33.8,12.2,41,29.94,10.0,WNW,10.4,20.7,N/A,,Overcast,300,2013-04-01 22:15:00
6:35 PM,33.8,12.2,41,29.94,10.0,WNW,5.8,16.1,N/A,,Overcast,290,2013-04-01 22:35:00
6:55 PM,33.8,12.2,41,29.94,10.0,WNW,12.7,19.6,N/A,,Mostly Cloudy,290,2013-04-01 22:55:00
7:15 PM,32.0,10.4,41,29.94,10.0,WNW,10.4,20.7,N/A,,Scattered Clouds,290,2013-04-01 23:15:00
7:35 PM,30.2,8.6,40,29.94,10.0,WNW,8.1,-,N/A,,Scattered Clouds,290,2013-04-01 23:35:00
7:55 PM,30.2,10.4,44,29.95,10.0,WNW,6.9,-,N/A,,Mostly Cloudy,290,2013-04-01 23:55:00
8:15 PM,30.2,10.4,44,29.95,10.0,WNW,5.8,-,N/A,,Overcast,290,2013-04-02 00:15:00
8:35 PM,30.2,10.4,44,29.95,10.0,WNW,6.9,-,N/A,,Mostly Cloudy,290,2013-04-02 00:35:00
8:55 PM,30.2,10.4,44,29.95,10.0,WNW,10.4,-,N/A,,Overcast,300,2013-04-02 00:55:00
9:15 PM,30.2,10.4,44,29.96,10.0,West,6.9,-,N/A,,Overcast,280,2013-04-02 01:15:00
9:35 PM,28.4,10.4,47,29.96,10.0,WNW,6.9,-,N/A,,Mostly Cloudy,290,2013-04-02 01:35:00
9:55 PM,28.4,12.2,51,29.97,10.0,WNW,8.1,-,N/A,,Mostly Cloudy,300,2013-04-02 01:55:00
10:15 PM,28.4,12.2,51,29.97,10.0,WNW,5.8,-,N/A,,Scattered Clouds,290,2013-04-02 02:15:00
10:35 PM,28.4,12.2,51,29.97,10.0,WNW,5.8,-,N/A,,Mostly Cloudy,290,2013-04-02 02:35:00
10:55 PM,28.4,14.0,55,29.97,10.0,WNW,8.1,16.1,N/A,,Mostly Cloudy,290,2013-04-02 02:55:00
11:15 PM,28.4,14.0,55,29.97,10.0,West,6.9,-,N/A,,Partly Cloudy,280,2013-04-02 03:15:00
11:35 PM,28.4,15.8,59,29.97,10.0,West,5.8,-,N/A,,Partly Cloudy,280,2013-04-02 03:35:00
11:55 PM,28.4,15.8,59,29.97,10.0,WNW,6.9,-,N/A,,Mostly Cloudy,300,2013-04-02 03:55:00